Regional Weather Roundup
Issued by NWS Northern Indiana

Home | Current Version | Previous Version | Text Only | Print | Product List | Glossary On
Versions: 1 2 3 4 5 6 7 8 9 10 11 12 13 14 15 16 17 18 19 20 21 22 23 24 25 26 27 28 29 30 31 32 33 34 35 36 37 38 39 40 41 42 43 44 45 46 47 48 49 50
000
ASUS43 KIWX 230910
RWRIWX

KIWX WEATHER ROUNDUP
NATIONAL WEATHER SERVICE NORTHERN INDIANA
500 AM EDT SAT MAY 23 2015

NOTE: "FAIR" INDICATES FEW OR NO CLOUDS BELOW 12,000 FEET WITH NO
SIGNIFICANT WEATHER AND/OR OBSTRUCTIONS TO VISIBILITY.

* THESE STATIONS ARE NOT UNDER NWS QUALITY CONTROL. THEY ALSO MAY NOT
  REPORT WEATHER SUCH AS PRECIPITATION OR FOG.

INZ001>027-231000-
NORTHERN INDIANA

CITY           SKY/WX    TMP DP  RH WIND       PRES   REMARKS
GARY*          MOCLDY    52  38  60 SE3       30.31S
VALPARAISO     MOCLDY    48  37  65 NE6       30.32R
MICHIGAN CITY* PTCLDY    50  32  50 CALM      30.32S
LAPORTE*       PTCLDY    51  37  59 CALM      30.33R
KNOX*          MOCLDY    46  34  61 E3        30.31R
SOUTH BEND     CLEAR     46  36  68 CALM      30.34R
GOSHEN         CLEAR     41  37  86 CALM      30.33R
MONTICELLO*    MOCLDY    53  38  56 E3        30.30S
LOGANSPORT*    MOCLDY    46  34  61 E5        30.32S
ROCHESTER*     PTCLDY    50  37  62 CALM      30.33R
WARSAW*        CLEAR     43  39  87 CALM      30.33R
ANGOLA*          N/A     41  37  87 CALM      30.34R
FORT WAYNE     PTCLDY    45  40  82 CALM      30.33S
HUNTINGTON*    CLEAR     44  39  80 CALM      30.33R
PERU/GRISSOM   PTCLDY    50  37  60 E7        30.30S
MARION*        PTCLDY    49  39  67 CALM      30.33S

$$
INZ028>050-231000-
CENTRAL INDIANA

CITY           SKY/WX    TMP DP  RH WIND       PRES   REMARKS
LAFAYETTE      CLOUDY    54  39  57 E9        30.29S
KOKOMO*        MOCLDY    52  37  58 E6        30.32S
MUNCIE*        MOCLDY    51  40  65 CALM      30.33R
INDIANAPOLIS   CLOUDY    58  42  55 NE9       30.28S

$$
MIZ043>046-050>051-056>058-064>065-071>073-077>080-231000-
SOUTHWEST LOWER MICHIGAN

CITY           SKY/WX    TMP DP  RH WIND       PRES   REMARKS
BATTLE CREEK   PTCLDY    47  35  63 VRB5      30.34R
BENTON HARBOR  CLEAR     44  33  65 SE6       30.31R
COLDWATER*     PTCLDY    43  36  75 SE6       30.33R
HILLSDALE*     PTCLDY    43  37  78 E3        30.34R
HOLLAND        PTCLDY    45  33  63 S5        30.32R
GRAND RAPIDS   PTCLDY    41  34  76 S6        30.32R
KALAMAZOO      PTCLDY    42  34  73 CALM      30.33R
STURGIS*       CLEAR     43  34  70 CALM      30.33R
THREE RIVERS*  FAIR      40  36  84 CALM      30.34R

$$
OHZ001>008-015>018-024>025-231000-
NORTHWEST OHIO

CITY           SKY/WX    TMP DP  RH WIND       PRES   REMARKS
WAUSEON*       FAIR      43  37  81 NE5       30.34S
DEFIANCE       MOCLDY    48  38  68 NE3       30.34R
FINDLAY        MOCLDY    50  36  58 CALM      30.33R
TOLEDO EXPRESS PTCLDY    44  41  89 CALM      30.34R
TOLEDO METCALF PTCLDY    47  43  86 CALM      30.35R
LIMA           PTCLDY    45  37  73 E3        30.33R

$$
AND FOR LAKE MICHIGAN COASTAL AND OPEN LAKE BUOY OBSERVATIONS

STATION/POSITION TEMP    WIND        PRES    VSBY  WAVE
                 AIR SEA DIR/SP/G                  HT/PER
                 (F)     (DEG/KT/KT) (MB)    (MI)  (FT/S)
CALUMET HARBOR    55     150/  4/  5   N/A
MICHIGAN CITY     55     100/ 12/ 15   N/A
BURNS HARBOR      58     140/  8/ 18 1026.4S
SAINT JOSEPH      50     160/  2/  4 1027.1S
SOUTH LAKE BUOY   45 38  170/  8/  8 1026.9R         0
4 MI NW BRIDGMAN  53 53  210/  6/  8   N/A           1
MICHIGAN CITY     54 51  130/  8/ 12   N/A           1/ 3

$$
&&


USA.gov is the U.S. government's official web portal to all federal, state and local government web resources and services.